Location: Archamps
(46.1365°N, 6.1329°E)
Time: 05:20:40
(UTC+00:00)

Cosmos 468 Rocket - Pass Details

Date: 28 January 2023
Orbit: 744 x 778 km, 74.0° (Epoch: 21 March)

Event Time Altitude Azimuth Distance (km) Brightness Sun altitude
Rises 18:31:26 0° 342° (NNW) 3,230 7.4 -20.3°
Reaches altitude 10° 18:33:55 10° 349° (N) 2,295 6.5 -20.7°
Enters shadow 18:38:38 44° 53° (NE) 1,031 4.3 -21.6°
